Weather History for KCEF - March, 2013

Change the Weather History Date:

Monday, March 25, 2013

  Actual Average Record
Temperature  
Mean Temperature 37 °F -  
Max Temperature 46 °F 47 °F 59 °F (2003)
Min Temperature 28 °F 30 °F 10 °F (2014)
Degree Days  
Heating Degree Days 28    
Moisture  
Dew Point 24 °F    
Average Humidity 61    
Maximum Humidity 83    
Minimum Humidity 39    
Precipitation  
Precipitation 0.00 in - - ()
Sea Level Pressure  
Sea Level Pressure 29.63 in    
Wind  
Wind Speed 7 mph (NE)    
Max Wind Speed 16 mph    
Max Gust Speed 25 mph    
Visibility 10 miles    
Events      
Averages and records for this station are not official NWS values.
T = Trace of Precipitation, MM = Missing Value Source: NWS Daily Summary

Daily Weather History Graph

Daily Weather History Graph

Search for Another Location

Airport or City:

Trip Planner

Search our weather history database for the weather conditions in past years. The results will help you decide how hot, cold, wet, or windy it might be!

Date:

Astronomy

Mar. 25, 2013 Rise Set
Actual Time 6:44 AM EDT 7:08 PM EDT
Civil Twilight 6:16 AM EDT 7:36 PM EDT
Nautical Twilight 5:43 AM EDT 8:09 PM EDT
Astronomical Twilight 5:09 AM EDT 8:43 PM EDT
Moon 5:35 PM EDT (3/25) 5:27 AM EDT (3/25)
Length of Visible Light 13h 19m
Length of Day
12h 23m
Waxing Gibbous, 96% of the Moon is Illuminated
Mar 25
Waxing Gibbous
Mar 27
Full
Apr 3
Last Quarter
Apr 10
New
Apr 18
First Quarter

Hourly Weather History & Observations

Time (EDT) Temp. Windchill Dew Point Humidity Pressure Visibility Wind Dir Wind Speed Gust Speed Precip Events Conditions
12:55 AM 32.4 °F 25.3 °F 23.0 °F 68% 29.76 in 10.0 mi NNE 8.1 mph - N/A   Clear
1:55 AM 29.7 °F 23.7 °F 22.5 °F 75% 29.75 in 10.0 mi North 5.8 mph - N/A   Clear
2:55 AM 30.2 °F - 22.6 °F 73% 29.74 in 10.0 mi Calm Calm - N/A   Clear
3:55 AM 28.8 °F - 24.1 °F 83% 29.72 in 10.0 mi Calm Calm - N/A   Clear
4:55 AM 29.1 °F 25.4 °F 24.1 °F 81% 29.71 in 10.0 mi North 3.5 mph - N/A   Clear
5:55 AM 29.5 °F - 23.4 °F 78% 29.70 in 10.0 mi Calm Calm - N/A   Clear
6:55 AM 29.8 °F 26.3 °F 22.6 °F 75% 29.70 in 10.0 mi North 3.5 mph - N/A   Clear
7:55 AM 30.2 °F - 25.2 °F 82% 29.71 in 10.0 mi Calm Calm - N/A   Clear
8:55 AM 33.8 °F 27.7 °F 25.2 °F 71% 29.69 in 10.0 mi NNE 6.9 mph - N/A   Partly Cloudy
9:55 AM 38.5 °F 32.7 °F 25.3 °F 59% 29.67 in 10.0 mi NE 8.1 mph - N/A   Partly Cloudy
10:55 AM 42.4 °F 36.1 °F 25.5 °F 51% 29.65 in 10.0 mi NE 11.5 mph - N/A   Clear
11:55 AM 43.5 °F 37.1 °F 23.5 °F 45% 29.62 in 10.0 mi ENE 12.7 mph 17.3 mph N/A   Mostly Cloudy
12:55 PM 46.4 °F 41.1 °F 22.5 °F 39% 29.59 in 10.0 mi ESE 11.5 mph 20.7 mph N/A   Mostly Cloudy
1:55 PM 43.9 °F 38.8 °F 23.5 °F 45% 29.57 in 10.0 mi East 9.2 mph 20.7 mph N/A   Overcast
2:55 PM 43.5 °F 36.1 °F 24.8 °F 48% 29.53 in 10.0 mi ENE 16.1 mph 23.0 mph N/A   Overcast
3:55 PM 42.6 °F 34.9 °F 24.3 °F 48% 29.50 in 10.0 mi ENE 16.1 mph 25.3 mph N/A   Overcast
4:55 PM 42.6 °F 35.6 °F 23.2 °F 46% 29.52 in 10.0 mi ENE 13.8 mph 24.2 mph N/A   Overcast
5:55 PM 42.3 °F 35.1 °F 23.5 °F 48% 29.52 in 10.0 mi ENE 13.8 mph 21.9 mph N/A   Overcast
6:55 PM 40.5 °F 34.6 °F 25.3 °F 55% 29.53 in 10.0 mi ENE 9.2 mph - N/A   Clear
7:55 PM 39.4 °F 33.8 °F 25.0 °F 56% 29.55 in 10.0 mi ENE 8.1 mph - N/A   Mostly Cloudy
8:55 PM 39.2 °F 31.6 °F 25.3 °F 58% 29.57 in 10.0 mi ENE 12.7 mph - N/A   Overcast
9:55 PM 39.0 °F 30.3 °F 25.5 °F 58% 29.58 in 10.0 mi ENE 16.1 mph - N/A   Overcast
10:55 PM 38.3 °F 30.5 °F 25.0 °F 59% 29.57 in 10.0 mi NE 12.7 mph - N/A   Overcast
11:55 PM 38.1 °F 31.2 °F 24.8 °F 59% 29.57 in 10.0 mi North 10.4 mph - N/A   Overcast